Weather History for Rawlins, WY

Change the Weather History Date:

Monday, February 18, 2013

  Actual Average Record
Temperature  
Mean Temperature 19 °F 24 °F  
Max Temperature 26 °F 34 °F 53 °F (1958)
Min Temperature 12 °F 14 °F -25 °F (2006)
Degree Days  
Heating Degree Days 46 41  
Month to date heating degree days 755 764  
Since 1 July heating degree days 5121 5563  
Cooling Degree Days 0 0  
Month to date cooling degree days 0 0  
Year to date cooling degree days 0 0  
Moisture  
Dew Point 11 °F    
Average Humidity 71    
Maximum Humidity 92    
Minimum Humidity 49    
Precipitation  
Precipitation T in 0.01 in 0.58 in (2000)
Month to date precipitation 0.14 0.25  
Year to date precipitation 0.31 0.61  
Sea Level Pressure  
Sea Level Pressure 30.05 in    
Wind  
Wind Speed 10 mph (West)    
Max Wind Speed 25 mph    
Max Gust Speed 32 mph    
Visibility 8 miles    
Events Snow    
T = Trace of Precipitation, MM = Missing Value Source: NWS Daily Summary

Daily Weather History Graph

Daily Weather History Graph

Search for Another Location

Airport:

Trip Planner

Search our weather history database for the weather conditions in past years. The results will help you decide how hot, cold, wet, or windy it might be!

Date:

Astronomy

Feb. 18, 2013 Rise Set
Actual Time 6:59 AM MST 5:46 PM MST
Civil Twilight 6:31 AM MST 6:14 PM MST
Nautical Twilight 5:58 AM MST 6:47 PM MST
Astronomical Twilight 5:26 AM MST 7:19 PM MST
Moon 11:31 AM MST (2/18) 1:44 AM MST (2/18)
Length of Visible Light 11h 43m
Length of Day
10h 46m
First Quarter, 59% of the Moon is Illuminated
Feb 18
First Quarter
Feb 25
Full
Mar 4
Last Quarter
Mar 11
New
Mar 19
First Quarter

Hourly Weather History & Observations

Time (MST) Temp. Windchill Dew Point Humidity Pressure Visibility Wind Dir Wind Speed Gust Speed Precip Events Conditions
12:53 AM 19.0 °F 7.5 °F 12.9 °F 77% 29.93 in 10.0 mi WNW 10.4 mph - N/A   Overcast
1:53 AM 16.0 °F 10.4 °F 12.0 °F 84% 29.97 in 10.0 mi West 3.5 mph - N/A   Overcast
2:53 AM 14.0 °F 0.5 °F 10.0 °F 84% 29.99 in 10.0 mi WNW 11.5 mph 16.1 mph N/A   Clear
3:13 AM 15.8 °F 2.1 °F 10.4 °F 79% 29.90 in 10.0 mi WNW 12.7 mph - N/A   Clear
3:40 AM 15.8 °F 2.1 °F 12.2 °F 86% 29.91 in 10.0 mi West 12.7 mph - N/A   Mostly Cloudy
3:53 AM 16.0 °F 4.4 °F 12.9 °F 88% 30.01 in 10.0 mi WSW 9.2 mph - N/A   Overcast
4:53 AM 12.0 °F 2.7 °F 10.0 °F 92% 30.06 in 10.0 mi West 5.8 mph - N/A   Mostly Cloudy
5:01 AM 12.2 °F 4.3 °F 8.6 °F 85% 29.93 in 10.0 mi WSW 4.6 mph - N/A   Scattered Clouds
5:23 AM 12.2 °F 4.3 °F 10.4 °F 92% 29.93 in 10.0 mi SW 4.6 mph - N/A   Mostly Cloudy
5:53 AM 12.9 °F -0.2 °F 9.0 °F 84% 30.08 in 10.0 mi SSW 10.4 mph - N/A   Overcast
6:53 AM 12.0 °F 1.5 °F 7.0 °F 80% 30.09 in 10.0 mi WSW 6.9 mph - N/A   Mostly Cloudy
7:01 AM 12.2 °F 2.9 °F 6.8 °F 79% 29.95 in 10.0 mi Variable 5.8 mph - N/A   Mostly Cloudy
7:53 AM 12.9 °F -3.9 °F 7.0 °F 77% 30.11 in 10.0 mi WSW 17.3 mph 24.2 mph N/A   Overcast
8:53 AM 15.1 °F -1.1 °F 7.0 °F 70% 30.12 in 10.0 mi WSW 17.3 mph 26.5 mph N/A   Clear
9:53 AM 17.1 °F 1.0 °F 9.0 °F 71% 30.13 in 10.0 mi WSW 18.4 mph 26.5 mph N/A   Clear
10:53 AM 18.0 °F 2.6 °F 10.0 °F 71% 30.13 in 10.0 mi West 17.3 mph 28.8 mph N/A   Mostly Cloudy
11:53 AM 21.9 °F 7.3 °F 12.9 °F 68% 30.14 in 10.0 mi West 18.4 mph - 0.00 in   Overcast
12:03 PM 21.2 °F 7.8 °F 14.0 °F 74% 30.01 in 3.0 mi WSW 15.0 mph - 0.00 in Snow Light Snow
12:12 PM 21.2 °F 6.8 °F 14.0 °F 74% 30.01 in 2.5 mi WSW 17.3 mph - 0.00 in Snow Light Snow
12:23 PM 23.0 °F 8.7 °F 15.8 °F 74% 30.00 in 1.8 mi WSW 18.4 mph - 0.00 in Snow Light Snow
12:53 PM 21.0 °F 9.3 °F 15.1 °F 78% 30.14 in 1.0 mi WSW 11.5 mph - 0.00 in Snow Light Snow
1:07 PM 21.2 °F 10.1 °F 15.8 °F 80% 29.99 in 0.8 mi West 10.4 mph - 0.00 in Snow Light Snow
1:42 PM 21.2 °F 11.7 °F 15.8 °F 80% 29.98 in 2.0 mi NW 8.1 mph - 0.00 in Snow Light Snow
1:48 PM 21.2 °F 8.3 °F 15.8 °F 80% 29.98 in 6.0 mi WNW 13.8 mph 19.6 mph 0.00 in Snow Light Snow
1:49 PM 21.9 °F 8.7 °F 16.0 °F 78% 30.13 in 5.0 mi WNW 15.0 mph 19.6 mph 0.00 in Snow Light Snow
2:01 PM 21.2 °F 6.0 °F 15.8 °F 80% 29.98 in 1.8 mi WNW 19.6 mph 26.5 mph 0.00 in Snow Light Snow
2:10 PM 21.2 °F 5.6 °F 12.2 °F 68% 29.99 in 0.8 mi West 20.7 mph 27.6 mph 0.00 in Snow Light Snow
2:20 PM 21.2 °F 7.8 °F 12.2 °F 68% 29.99 in 2.0 mi WNW 15.0 mph - 0.00 in Snow Light Snow
2:28 PM 23.0 °F 11.7 °F 12.2 °F 63% 29.99 in 8.0 mi West 11.5 mph - 0.00 in   Mostly Cloudy
2:36 PM 26.6 °F 14.7 °F 12.2 °F 55% 29.99 in 10.0 mi West 15.0 mph 19.6 mph 0.00 in   Overcast
2:53 PM 24.1 °F 12.0 °F 14.0 °F 65% 30.15 in 10.0 mi WNW 13.8 mph - 0.00 in   Overcast
3:09 PM 23.0 °F 9.6 °F 15.8 °F 74% 30.00 in 0.8 mi WNW 16.1 mph - 0.00 in Snow Light Snow
3:14 PM 24.8 °F 12.4 °F 15.8 °F 69% 30.00 in 2.0 mi West 15.0 mph - 0.00 in Snow Light Snow
3:21 PM 24.8 °F 12.4 °F 15.8 °F 69% 30.00 in 9.0 mi West 15.0 mph - 0.00 in Snow Light Snow
3:45 PM 24.8 °F 11.1 °F 14.0 °F 64% 30.00 in 10.0 mi West 18.4 mph - 0.00 in   Overcast
3:53 PM 24.1 °F 11.5 °F 14.0 °F 65% 30.14 in 10.0 mi West 15.0 mph - 0.00 in   Overcast
4:53 PM 21.9 °F 14.5 °F 12.9 °F 68% 30.17 in 10.0 mi SW 5.8 mph - N/A   Scattered Clouds
5:53 PM 17.1 °F 8.7 °F 12.0 °F 81% 30.19 in 10.0 mi SSW 5.8 mph - N/A   Clear
6:53 PM 17.1 °F 6.6 °F 8.1 °F 68% 30.19 in 10.0 mi West 8.1 mph - N/A   Clear
7:53 PM 19.0 °F - 3.9 °F 52% 30.17 in 10.0 mi Calm Calm - N/A   Clear
8:53 PM 17.1 °F 11.7 °F 3.0 °F 54% 30.17 in 10.0 mi WNW 3.5 mph - N/A   Clear
10:53 PM 18.0 °F 9.8 °F 1.0 °F 48% 30.15 in 10.0 mi South 5.8 mph - N/A   Clear
11:53 PM 14.0 °F 8.2 °F -0.9 °F 52% 30.14 in 10.0 mi South 3.5 mph - N/A   Clear